Regional Weather Roundup
Issued by NWS

Home | Current Version | Previous Version | Graphics & Text | Print | Product List | Glossary On
Versions: 1 2 3 4 5 6 7 8 9 10 11 12 13 14 15 16 17 18 19 20 21 22 23 24 25 26 27 28
000
ASUS45 KSLC 251510
RWRUT

UTAH REGIONAL WEATHER ROUNDUP
NATIONAL WEATHER SERVICE SALT LAKE CITY UT
900 AM MDT MON SEP 25 2017

UTZ001>011-023>025-251600-

NORTHERN UTAH

CITY           SKY/WX    TMP DP  RH WIND       PRES   REMARKS
BRIGHAM CITY   SUNNY     41  38  89 CALM      30.16S
HILL AFB       SUNNY     43  38  83 E9        30.14R
LOGAN          FOG       41  40  96 N5        30.16R VSB 1/4
OGDEN          SUNNY     45  41  86 NW3       30.14R
SALT LAKE CITY MOSUNNY   45  41  86 SE8       30.14R
TOOELE VALLEY  SUNNY     45  37  76 S9        30.15R
WENDOVER       CLOUDY    46  37  71 CALM      30.14
HEBER CITY     CLOUDY    37  36  93 CALM      30.15R
WEST JORDAN    SUNNY     44  43  96 CALM      30.15R

$$

UTZ011>015-024>027-251600-

CENTRAL/NORTHEAST UTAH

CITY           SKY/WX    TMP DP  RH WIND       PRES   REMARKS
PROVO AIRPORT  MOSUNNY   42  39  89 S5        30.17R
MOAB/CANYONLAN SUNNY     47  33  58 CALM      30.08R
DELTA          SUNNY     36  36 100 CALM      30.15R
PRICE          SUNNY     45  30  55 CALM      30.11R
ROOSEVELT      SUNNY     39  34  81 CALM      30.16S
VERNAL         SUNNY     42  37  82 CALM      30.14R

$$

UTZ013>016-019>022-027-251600-

SOUTHERN UTAH

CITY           SKY/WX    TMP DP  RH WIND       PRES   REMARKS
BRYCE CANYON   SUNNY     33  25  72 W3        30.15R
CEDAR CITY     SUNNY     37  32  82 NW5       30.11R WCI  33
MILFORD        SUNNY     37  34  89 N3        30.13R
ST GEORGE      SUNNY     53  27  36 E6        30.06R
HANKSVILLE     SUNNY     45  30  57 CALM      30.13R
BLANDING         N/A     46  25  43 CALM      30.15R

$$

REGIONAL REPORTS     COLORADO/ARIZONA

CITY           SKY/WX    TMP DP  RH WIND       PRES   REMARKS
CRAIG, CO      CLOUDY    35  31  85 CALM      30.15S
GRAND JUNCTION SUNNY     44  33  65 S3        30.10R
RIFLE, CO      SUNNY     39  31  72 CALM      30.13R
MONTROSE, CO   SUNNY     42  28  57 SE6       30.14R
CORTEZ, CO     SUNNY     39  24  55 NE6       30.08F WCI  35
PAGE, AZ       SUNNY     53  26  35 CALM      30.06R
GRAND CANYON   SUNNY     46  24  42 VRB5      30.09R
KINGMAN, AZ    SUNNY     54  29  38 E7        30.01R
FLAGSTAFF, AZ  SUNNY     43  20  39 NE5       30.08S

$$

REGIONAL REPORTS    NEVADA/IDAHO/WYOMING

CITY           SKY/WX    TMP DP  RH WIND       PRES   REMARKS
LAS VEGAS, NV  MOSUNNY   60  28  29 S3        30.00R
ELY, NY        SUNNY     30  25  81 S9        30.17R WCI  22
ELKO, NV       CLOUDY    40  32  73 SW5       30.15S
POCATELLO, ID  MOSUNNY   43  37  79 CALM      30.16R
BURLEY, ID     SUNNY     40  31  70 S3        30.13R
FORT BRIDGER,  PTSUNNY   36  36 100 W8        30.18R WCI  29
EVANSTON, WY   PTSUNNY   34  34 100 W7        30.16R WCI  28
ROCK SPRINGS,  CLOUDY    36  35  96 SW6       30.13R WCI  31

$$




USA.gov is the U.S. government's official web portal to all federal, state and local government web resources and services.